Weather History for Clarksburg, WV

Change the Weather History Date:

Friday, November 15, 2013

  Actual Average Record
Temperature  
Mean Temperature 42 °F -  
Max Temperature 57 °F 54 °F 79 °F (1993)
Min Temperature 28 °F 30 °F 13 °F (1986)
Degree Days  
Heating Degree Days 22    
Moisture  
Dew Point 26 °F    
Average Humidity 55    
Maximum Humidity 86    
Minimum Humidity 24    
Precipitation  
Precipitation 0.04 in - - ()
Sea Level Pressure  
Sea Level Pressure 30.22 in    
Wind  
Wind Speed 3 mph (SSW)    
Max Wind Speed 15 mph    
Max Gust Speed -    
Visibility 10 miles    
Events Rain    
Averages and records for this station are not official NWS values.
T = Trace of Precipitation, MM = Missing Value Source: NWS Daily Summary

Daily Weather History Graph

Daily Weather History Graph

Search for Another Location

Airport:

Trip Planner

Search our weather history database for the weather conditions in past years. The results will help you decide how hot, cold, wet, or windy it might be!

Date:

Astronomy

Nov. 15, 2013 Rise Set
Actual Time 7:04 AM EST 5:05 PM EST
Civil Twilight 6:36 AM EST 5:34 PM EST
Nautical Twilight 6:03 AM EST 6:07 PM EST
Astronomical Twilight 5:31 AM EST 6:38 PM EST
Moon 4:01 PM EST (11/15) 5:00 AM EST (11/15)
Length of Visible Light 10h 58m
Length of Day
10h 01m
Waxing Gibbous, 96% of the Moon is Illuminated
Nov 15
Waxing Gibbous
Nov 17
Full
Nov 25
Last Quarter
Dec 2
New
Dec 9
First Quarter

Hourly Weather History & Observations

Time (EST) Temp. Windchill Dew Point Humidity Pressure Visibility Wind Dir Wind Speed Gust Speed Precip Events Conditions
12:53 AM 30.0 °F - 21.9 °F 72% 30.24 in 10.0 mi Calm Calm - N/A   Clear
1:53 AM 28.9 °F - 21.0 °F 72% 30.23 in 10.0 mi Calm Calm - N/A   Clear
2:53 AM 28.0 °F - 21.9 °F 78% 30.24 in 10.0 mi Calm Calm - N/A   Clear
3:53 AM 28.9 °F - 21.0 °F 72% 30.23 in 10.0 mi Calm Calm - N/A   Clear
4:53 AM 28.0 °F - 21.0 °F 75% 30.24 in 10.0 mi Calm Calm - N/A   Clear
5:53 AM 30.0 °F - 19.9 °F 66% 30.25 in 10.0 mi Calm Calm - N/A   Clear
6:53 AM 28.0 °F - 21.0 °F 75% 30.26 in 10.0 mi Calm Calm - N/A   Clear
7:53 AM 30.0 °F - 21.0 °F 69% 30.28 in 10.0 mi Calm Calm - N/A   Overcast
8:53 AM 35.1 °F - 27.0 °F 72% 30.27 in 10.0 mi Calm Calm - N/A   Clear
9:53 AM 46.9 °F - 25.0 °F 42% 30.25 in 10.0 mi South 4.6 mph - N/A   Clear
10:53 AM 53.1 °F - 21.0 °F 29% 30.25 in 10.0 mi SSW 8.1 mph - N/A   Clear
11:53 AM 54.0 °F - 18.0 °F 24% 30.24 in 10.0 mi SW 15.0 mph - N/A   Clear
12:53 PM 55.9 °F - 21.0 °F 26% 30.21 in 10.0 mi West 9.2 mph - N/A   Clear
1:53 PM 55.9 °F - 25.0 °F 30% 30.19 in 10.0 mi SW 9.2 mph - N/A   Scattered Clouds
2:53 PM 57.9 °F - 27.0 °F 31% 30.18 in 10.0 mi SSW 10.4 mph - N/A   Clear
3:53 PM 54.0 °F - 28.0 °F 37% 30.17 in 10.0 mi SSW 8.1 mph - N/A   Mostly Cloudy
4:53 PM 53.1 °F - 30.0 °F 41% 30.17 in 10.0 mi SSW 5.8 mph - N/A   Overcast
5:53 PM 53.1 °F - 28.9 °F 40% 30.16 in 10.0 mi South 5.8 mph - N/A   Overcast
6:53 PM 53.1 °F - 28.0 °F 38% 30.17 in 10.0 mi Calm Calm - N/A   Mostly Cloudy
7:53 PM 52.0 °F - 30.9 °F 45% 30.17 in 10.0 mi SSE 6.9 mph - N/A   Overcast
8:53 PM 51.1 °F - 33.1 °F 50% 30.20 in 10.0 mi WSW 3.5 mph - 0.00 in Rain Light Rain
9:53 PM 48.0 °F - 37.9 °F 68% 30.21 in 10.0 mi South 5.8 mph - 0.01 in Rain Light Rain
10:53 PM 46.9 °F - 39.9 °F 77% 30.21 in 10.0 mi Calm Calm - 0.01 in Rain Light Rain
11:53 PM 45.0 °F 43.5 °F 41.0 °F 86% 30.22 in 10.0 mi South 3.5 mph - 0.02 in   Overcast